{"data":{"norad_id":62393,"intl_designator":"2024-247S","name":"BANDWAGON-2 OBJECT S","alt_names":[],"object_type":"PAYLOAD","status":"ACTIVE","operator":null,"country":"TBD","launch_date":"2024-12-21","launch_site_code":"AFWTR","launch_vehicle":null,"mission":null,"orbit_class":"UNKNOWN","rcs_meters":null,"size_class":null,"mass_kg":null,"dimensions":null,"purposes":[],"wikipedia_slug":null,"has_3d_model":false,"image_url":null,"decayed_at":null,"tle_current":{"epoch":"2026-06-17T10:24:16.430400Z","epoch_age_seconds":8525881,"freshness":"OLD","line1":"1 62393U 24247S   26168.43352350  .08555031  10449-4  12024-2 0  9990","line2":"2 62393  44.9438 214.8221 0004217 356.8938   3.1957 16.33986744 83897","mean_motion":16.33986744,"eccentricity":0.0004217,"inclination_deg":44.9438,"raan_deg":214.8221,"arg_perigee_deg":356.8938,"mean_anomaly_deg":3.1957,"bstar":0.0012024,"rev_number":8389,"period_min":88.128009929559,"perigee_km":179.08128771356,"apogee_km":184.61397875323,"semimajor_km":6559.9846332334,"source":"CELESTRAK","updated_at":"2026-06-18T09:00:39.169423Z"}}}